CW7204 Weather Reports


time (UTC)temp
F
wind
direction
speed
knots
gust
knots
rain 1hr
in
rain 24hr
in
rain mn
in
humidity
%
barometer
mb
20260507142410 60 90 2.6 8.7 0.00 0.00 0.00 43 1017.1
20260507141410 60 90 7.0 13.9 0.00 0.00 0.00 41 1017.2
20260507140410 60 90 5.2 10.4 0.00 0.00 0.00 41 1017.2
20260507135413 60 90 5.2 12.2 0.00 0.00 0.00 42 1017.1
20260507132413 60 90 8.7 10.4 0.00 0.00 0.00 42 1017.1
20260507131413 60 67 0.9 9.6 0.00 0.00 0.00 42 1017.0
20260507125413 61 67 6.1 11.3 0.00 0.00 0.00 42 1016.9
20260507124412 61 90 7.8 9.6 0.00 0.00 0.00 41 1016.9
20260507123412 61 67 5.2 12.2 0.00 0.00 0.00 44 1016.9
20260507122412 61 90 7.0 13.9 0.00 0.00 0.00 45 1016.7
20260507121414 61 90 5.2 14.8 0.00 0.00 0.00 42 1016.7
20260507120411 61 67 1.7 7.8 0.00 0.00 0.00 45 1016.7
20260507115411 60 67 6.1 11.3 0.00 0.00 0.00 46 1016.7
20260507114410 60 90 6.1 11.3 0.00 0.00 0.00 47 1016.8
20260507113415 60 135 5.2 12.2 0.00 0.00 0.00 49 1016.8
20260507112415 60 90 7.0 9.6 0.00 0.00 0.00 48 1016.6
20260507111414 60 90 5.2 11.3 0.00 0.00 0.00 47 1016.7
20260507110414 60 90 5.2 14.8 0.00 0.00 0.00 43 1016.7
20260507105414 60 90 5.2 12.2 0.00 0.00 0.00 47 1016.8
20260507104413 60 90 7.0 9.6 0.00 0.00 0.00 45 1016.5
20260507103413 58 90 5.2 12.2 0.00 0.00 0.00 48 1016.5
20260507102413 59 90 7.0 12.2 0.00 0.00 0.00 49 1016.5
20260507100412 58 90 7.0 11.3 0.00 0.00 0.00 50 1016.4
20260507095411 58 90 7.8 10.4 0.00 0.00 0.00 51 1016.4
20260507094411 58 67 5.2 8.7 0.00 0.00 0.00 56 1016.4
20260507092410 58 90 7.0 9.6 0.00 0.00 0.00 55 1016.2
20260507091415 57 90 3.5 11.3 0.00 0.00 0.00 57 1016.1
20260507090415 57 90 6.1 9.6 0.00 0.00 0.00 57 1016.1
20260507085415 56 45 1.7 9.6 0.00 0.00 0.00 61 1015.9
20260507084414 56 67 0.0 6.1 0.00 0.00 0.00 61 1015.9
20260507083414 55 67 2.6 8.7 0.00 0.00 0.00 64 1015.9
20260507081413 55 112 3.5 12.2 0.00 0.00 0.00 64 1015.8
20260507080413 54 90 3.5 7.8 0.00 0.00 0.00 69 1015.8
20260507075413 54 90 3.5 7.8 0.00 0.00 0.00 68 1015.6
20260507074412 53 90 7.0 10.4 0.00 0.00 0.00 67 1015.5
20260507073412 53 67 1.7 9.6 0.00 0.00 0.00 71 1015.5
20260507072411 53 90 5.2 7.8 0.00 0.00 0.00 72 1015.6
20260507071411 52 90 5.2 7.8 0.00 0.00 0.00 73 1015.4
20260507070411 52 45 0.9 9.6 0.00 0.00 0.00 75 1015.4
20260507064415 51 90 5.2 8.7 0.00 0.00 0.00 77 1015.3
20260507063415 50 90 5.2 9.6 0.00 0.00 0.00 79 1015.3
20260507062414 49 90 6.1 11.3 0.00 0.00 0.00 82 1015.1
20260507060414 48 90 2.6 6.1 0.00 0.00 0.00 85 1014.9
20260507055414 47 90 5.2 7.8 0.00 0.00 0.00 86 1014.8
20260507054413 47 67 1.7 5.2 0.00 0.00 0.00 88 1014.8
20260507053413 45 45 0.9 5.2 0.00 0.00 0.00 90 1014.8
20260507052412 44 90 0.9 6.1 0.00 0.00 0.00 92 1014.7
20260507051412 43 45 0.9 1.7 0.00 0.00 0.00 93 1014.4
20260507050411 42 0 0.0 1.7 0.00 0.00 0.00 93 1014.4
20260507045412 42 0 0.0 0.0 0.00 0.00 0.00 94 1014.3
20260507043414 41 0 0.0 0.0 0.00 0.00 0.00 94 1014.3
20260507042410 41 0 0.0 0.0 0.00 0.00 0.00 94 1014.2
20260507040415 41 0 0.0 0.0 0.00 0.00 0.00 94 1013.9
20260507035414 41 0 0.0 0.0 0.00 0.00 0.00 93 1013.8
20260507034414 41 45 0.0 1.7 0.00 0.00 0.00 93 1013.7
20260507032413 42 0 0.0 0.0 0.00 0.00 0.00 92 1013.7
20260507031413 42 0 0.0 0.0 0.00 0.00 0.00 92 1013.6
20260507030413 42 0 0.0 0.0 0.00 0.00 0.00 91 1013.6
20260507025413 43 0 0.0 0.0 0.00 0.00 0.00 91 1013.4
20260507024412 43 0 0.0 0.0 0.00 0.00 0.00 90 1013.3
20260507023412 44 0 0.0 0.0 0.00 0.00 0.00 88 1013.3
20260507022411 45 45 0.0 3.5 0.00 0.00 0.00 87 1013.2
20260507020411 45 67 0.9 5.2 0.00 0.00 0.00 87 1013.2
20260507015412 45 67 0.0 1.7 0.00 0.00 0.00 87 1013.0
20260507014415 45 67 0.0 1.7 0.00 0.00 0.00 87 1012.8
20260507013415 46 67 0.9 3.5 0.00 0.00 0.00 85 1012.8
20260507011417 46 90 1.7 7.0 0.00 0.00 0.00 84 1012.7
20260507004413 46 67 0.9 5.2 0.00 0.00 0.00 84 1012.7
20260507003413 46 90 0.9 3.5 0.00 0.00 0.00 84 1012.7
20260507002412 47 67 0.9 5.2 0.00 0.00 0.00 83 1012.6
20260507001412 47 90 3.5 8.7 0.00 0.00 0.00 84 1012.7
20260507000412 47 67 0.9 6.1 0.00 0.00 0.00 84 1012.7
20260506235411 47 67 1.7 6.1 0.00 0.00 0.00 84 1012.6
20260506234411 47 67 0.9 7.0 0.00 0.00 0.00 84 1012.5
20260506233411 47 90 3.5 6.1 0.00 0.00 0.00 84 1012.5
20260506232410 47 67 2.6 5.2 0.00 0.00 0.00 85 1012.4
20260506231410 47 90 0.9 3.5 0.00 0.00 0.00 85 1012.2
20260506225414 47 0 0.0 0.0 0.00 0.00 0.00 85 1012.2
20260506224414 47 112 0.0 5.2 0.00 0.00 0.00 84 1012.2
20260506223414 47 90 0.9 5.2 0.00 0.00 0.00 84 1012.2
20260506222413 47 67 2.6 3.5 0.00 0.00 0.00 84 1012.2
20260506221413 47 67 1.7 5.2 0.00 0.00 0.00 84 1012.2
20260506220413 47 67 1.7 6.1 0.00 0.00 0.00 86 1012.2
20260506215415 48 45 0.0 5.2 0.00 0.00 0.00 85 1011.9
20260506214412 48 135 0.9 5.2 0.00 0.00 0.00 84 1011.8
20260506213411 49 67 0.9 3.5 0.00 0.00 0.00 83 1011.8
20260506212411 49 90 2.6 6.1 0.00 0.00 0.00 82 1011.8
20260506211414 49 45 3.5 7.0 0.00 0.00 0.00 83 1011.8
20260506205410 49 90 0.9 7.8 0.00 0.00 0.00 82 1011.7
20260506204410 49 45 0.9 6.1 0.00 0.00 0.00 82 1011.6
20260506202414 49 45 0.9 7.0 0.00 0.00 0.00 83 1011.4
20260506201414 49 22 1.7 6.1 0.00 0.00 0.00 82 1011.3
20260506200414 49 45 2.6 6.1 0.00 0.00 0.00 81 1011.3
20260506194413 49 67 1.7 3.5 0.00 0.00 0.00 79 1011.1
20260506193413 50 90 1.7 6.1 0.00 0.00 0.00 78 1011.1
20260506192413 50 67 1.7 7.0 0.00 0.00 0.00 77 1011.1
20260506191412 51 45 1.7 6.1 0.00 0.00 0.00 75 1010.7
20260506190412 51 67 5.2 7.0 0.00 0.00 0.00 73 1010.7
20260506185411 51 45 0.9 6.1 0.00 0.00 0.00 72 1010.6
20260506184411 51 45 0.9 2.6 0.00 0.00 0.00 73 1010.6
20260506182410 52 67 1.7 9.6 0.00 0.00 0.00 70 1010.4
20260506181410 52 337 0.9 7.0 0.00 0.00 0.00 68 1010.2
20260506180415 52 67 2.6 7.0 0.00 0.00 0.00 65 1010.2
20260506175414 53 22 0.0 7.8 0.00 0.00 0.00 63 1010.1
20260506174414 53 67 0.9 7.8 0.00 0.00 0.00 66 1010.0
20260506172413 53 67 2.6 7.8 0.00 0.00 0.00 65 1009.7
20260506171416 54 360 0.9 7.8 0.00 0.00 0.00 64 1009.6
20260506170413 54 67 2.6 7.8 0.00 0.00 0.00 63 1009.6
20260506165412 54 67 2.6 7.0 0.00 0.00 0.00 64 1009.6
20260506164412 55 67 2.6 7.8 0.00 0.00 0.00 64 1009.6
20260506163412 55 45 2.6 9.6 0.00 0.00 0.00 63 1009.6
20260506162411 55 90 2.6 7.8 0.00 0.00 0.00 62 1009.6
20260506161411 55 22 1.7 8.7 0.00 0.00 0.00 61 1009.6
20260506160410 56 90 3.5 7.8 0.00 0.00 0.00 62 1009.6
20260506155410 56 67 2.6 7.8 0.00 0.00 0.00 60 1009.7
20260506154415 56 67 2.6 9.6 0.00 0.00 0.00 62 1009.7
20260506152414 57 45 2.6 7.8 0.00 0.00 0.00 63 1009.6
20260506151414 57 67 0.9 9.6 0.00 0.00 0.00 61 1009.6
20260506150413 57 67 2.6 7.0 0.00 0.00 0.00 61 1009.6
20260506145416 57 67 2.6 7.8 0.00 0.00 0.00 60 1009.6
20260506144413 57 67 3.5 6.1 0.00 0.00 0.00 59 1009.6